timestamp,wind_dir_avg,wind_spd_max_dir,wind_spd_avg,wind_spd_gust,battery_voltage,lat,long
2018-05-22 00:00:00+00:00,231.0,231.0,6.89,8.15,,47.59359,-54.27349
2018-05-22 00:10:00+00:00,218.0,220.0,7.62,8.21,,47.59359,-54.27349
2018-05-22 00:20:00+00:00,220.0,223.0,7.78,9.32,,47.59359,-54.27349
2018-05-22 00:30:00+00:00,225.0,227.0,9.86,11.19,,47.59359,-54.27349
2018-05-22 00:40:00+00:00,229.0,228.0,9.98,11.93,,47.59359,-54.27349
2018-05-22 00:50:00+00:00,241.0,256.0,9.51,12.01,,47.59359,-54.27349
2018-05-22 01:00:00+00:00,274.0,278.0,14.27,15.51,,47.59359,-54.27349
2018-05-22 01:10:00+00:00,289.0,287.0,11.47,13.23,,47.59359,-54.27349
2018-05-22 01:20:00+00:00,287.0,281.0,10.89,12.48,,47.59359,-54.27349
2018-05-22 01:30:00+00:00,239.0,242.0,7.69,9.04,,47.59359,-54.27349
2018-05-22 01:40:00+00:00,225.0,226.0,6.89,7.74,,47.59359,-54.27349
2018-05-22 01:50:00+00:00,221.0,228.0,7.45,8.82,,47.59359,-54.27349
2018-05-22 02:00:00+00:00,230.0,231.0,6.72,8.58,,47.59359,-54.27349
2018-05-22 02:10:00+00:00,216.0,213.0,6.15,7.66,,47.59359,-54.27349
2018-05-22 02:20:00+00:00,226.0,228.0,9.51,11.7,,47.59359,-54.27349
2018-05-22 02:30:00+00:00,226.0,224.0,9.56,10.78,,47.59359,-54.27349
2018-05-22 02:40:00+00:00,229.0,230.0,7.78,8.64,,47.59359,-54.27349
2018-05-22 02:50:00+00:00,228.0,231.0,5.67,6.62,,47.59359,-54.27349
2018-05-22 03:00:00+00:00,236.0,237.0,5.82,6.54,,47.59359,-54.27349
2018-05-22 03:10:00+00:00,236.0,235.0,5.96,7.08,,47.59359,-54.27349
2018-05-22 03:20:00+00:00,232.0,236.0,6.87,8.66,,47.59359,-54.27349
2018-05-22 03:30:00+00:00,226.0,225.0,10.05,11.3,,47.59359,-54.27349
2018-05-22 03:40:00+00:00,229.0,229.0,9.15,10.22,,47.59359,-54.27349
2018-05-22 03:50:00+00:00,222.0,225.0,10.26,11.15,,47.59359,-54.27349
2018-05-22 04:00:00+00:00,220.0,221.0,8.43,9.34,,47.59359,-54.27349
2018-05-22 04:10:00+00:00,220.0,218.0,6.32,7.13,,47.59359,-54.27349
2018-05-22 04:20:00+00:00,216.0,217.0,5.77,6.33,,47.59359,-54.27349
2018-05-22 04:30:00+00:00,218.0,220.0,5.93,6.48,,47.59359,-54.27349
2018-05-22 04:40:00+00:00,216.0,216.0,7.1,8.0,,47.59359,-54.27349
2018-05-22 04:50:00+00:00,221.0,219.0,6.49,7.21,,47.59359,-54.27349
2018-05-22 05:00:00+00:00,227.0,224.0,6.17,6.84,,47.59359,-54.27349
2018-05-22 05:10:00+00:00,231.0,234.0,5.45,6.13,,47.59359,-54.27349
2018-05-22 05:20:00+00:00,231.0,234.0,5.93,6.87,,47.59359,-54.27349
2018-05-22 05:30:00+00:00,243.0,241.0,5.68,6.74,,47.59359,-54.27349
2018-05-22 05:40:00+00:00,272.0,268.0,4.8,5.5,,47.59359,-54.27349
2018-05-22 05:50:00+00:00,288.0,286.0,6.48,7.39,,47.59359,-54.27349
2018-05-22 06:00:00+00:00,286.0,283.0,7.18,8.56,,47.59359,-54.27349
2018-05-22 06:10:00+00:00,284.0,289.0,8.03,9.21,,47.59359,-54.27349
2018-05-22 06:20:00+00:00,287.0,287.0,7.76,8.95,,47.59359,-54.27349
2018-05-22 06:30:00+00:00,299.0,300.0,9.75,11.66,,47.59359,-54.27349
2018-05-22 06:40:00+00:00,293.0,297.0,9.79,12.05,,47.59359,-54.27349
2018-05-22 06:50:00+00:00,289.0,292.0,10.4,12.07,,47.59359,-54.27349
2018-05-22 07:00:00+00:00,291.0,293.0,9.6,11.19,,47.59359,-54.27349
2018-05-22 07:10:00+00:00,292.0,292.0,8.42,9.25,,47.59359,-54.27349
2018-05-22 07:20:00+00:00,296.0,298.0,8.45,9.22,,47.59359,-54.27349
2018-05-22 07:30:00+00:00,296.0,299.0,8.15,9.86,,47.59359,-54.27349
2018-05-22 07:40:00+00:00,306.0,310.0,9.39,11.46,,47.59359,-54.27349
2018-05-22 07:50:00+00:00,314.0,307.0,8.17,9.25,,47.59359,-54.27349
2018-05-22 08:00:00+00:00,307.0,303.0,7.8,9.35,,47.59359,-54.27349
2018-05-22 08:10:00+00:00,301.0,293.0,9.11,10.35,,47.59359,-54.27349
2018-05-22 08:20:00+00:00,304.0,310.0,10.2,11.74,,47.59359,-54.27349
2018-05-22 08:30:00+00:00,297.0,295.0,9.74,12.1,,47.59359,-54.27349
2018-05-22 08:40:00+00:00,307.0,304.0,9.01,10.89,,47.59359,-54.27349
2018-05-22 08:50:00+00:00,307.0,307.0,8.86,10.37,,47.59359,-54.27349
2018-05-22 09:00:00+00:00,302.0,300.0,9.89,11.55,,47.59359,-54.27349
2018-05-22 09:10:00+00:00,309.0,311.0,9.99,11.43,,47.59359,-54.27349
2018-05-22 09:20:00+00:00,317.0,311.0,11.43,13.29,,47.59359,-54.27349
2018-05-22 09:30:00+00:00,310.0,310.0,9.99,12.18,,47.59359,-54.27349
2018-05-22 09:40:00+00:00,308.0,309.0,9.83,12.44,,47.59359,-54.27349
2018-05-22 09:50:00+00:00,312.0,313.0,10.19,12.6,,47.59359,-54.27349
2018-05-22 10:00:00+00:00,309.0,315.0,10.6,12.82,,47.59359,-54.27349
2018-05-22 10:10:00+00:00,313.0,309.0,8.76,11.94,,47.59359,-54.27349
2018-05-22 10:20:00+00:00,315.0,322.0,7.58,8.95,,47.59359,-54.27349
2018-05-22 10:30:00+00:00,325.0,325.0,8.58,9.63,,47.59359,-54.27349
2018-05-22 10:40:00+00:00,338.0,336.0,9.03,10.29,,47.59359,-54.27349
2018-05-22 10:50:00+00:00,329.0,331.0,9.6,12.36,,47.59359,-54.27349
2018-05-22 11:00:00+00:00,340.0,336.0,9.32,10.26,,47.59359,-54.27349
2018-05-22 11:10:00+00:00,344.0,345.0,9.72,10.41,,47.59359,-54.27349
2018-05-22 11:20:00+00:00,334.0,336.0,8.67,9.9,,47.59359,-54.27349
2018-05-22 11:30:00+00:00,350.0,345.0,8.48,10.5,,47.59359,-54.27349
2018-05-22 11:40:00+00:00,344.0,350.0,6.66,8.63,,47.59359,-54.27349
2018-05-22 11:50:00+00:00,340.0,337.0,9.21,10.37,,47.59359,-54.27349
2018-05-22 12:00:00+00:00,350.0,348.0,9.31,9.95,,47.59359,-54.27349
2018-05-22 12:10:00+00:00,349.0,348.0,9.24,10.34,,47.59359,-54.27349
2018-05-22 12:20:00+00:00,355.0,352.0,6.77,7.99,,47.59359,-54.27349
2018-05-22 12:30:00+00:00,358.0,356.0,9.54,10.94,,47.59359,-54.27349
2018-05-22 12:40:00+00:00,6.0,14.0,9.86,11.02,,47.59359,-54.27349
2018-05-22 12:50:00+00:00,1.0,357.0,10.58,11.95,,47.59359,-54.27349
2018-05-22 13:00:00+00:00,2.0,3.0,9.82,11.29,,47.59359,-54.27349
2018-05-22 13:10:00+00:00,16.0,14.0,8.93,10.41,,47.59359,-54.27349
2018-05-22 13:20:00+00:00,27.0,34.0,7.69,8.72,,47.59359,-54.27349
2018-05-22 13:30:00+00:00,28.0,32.0,7.98,9.3,,47.59359,-54.27349
2018-05-22 13:40:00+00:00,21.0,18.0,8.59,10.79,,47.59359,-54.27349
2018-05-22 13:50:00+00:00,29.0,29.0,8.22,9.09,,47.59359,-54.27349
2018-05-22 14:00:00+00:00,29.0,32.0,5.27,6.22,,47.59359,-54.27349
2018-05-22 14:10:00+00:00,73.0,77.0,8.54,9.95,,47.59359,-54.27349
2018-05-22 14:20:00+00:00,69.0,67.0,8.47,9.6,,47.59359,-54.27349
2018-05-22 14:30:00+00:00,69.0,71.0,8.54,10.08,,47.59359,-54.27349
2018-05-22 14:40:00+00:00,64.0,59.0,8.6,9.38,,47.59359,-54.27349
2018-05-22 14:50:00+00:00,75.0,71.0,7.17,8.17,,47.59359,-54.27349
2018-05-22 15:00:00+00:00,74.0,77.0,7.88,8.96,,47.59359,-54.27349
2018-05-22 15:10:00+00:00,79.0,80.0,7.17,7.98,,47.59359,-54.27349
2018-05-22 15:20:00+00:00,82.0,85.0,6.87,7.63,,47.59359,-54.27349
2018-05-22 15:30:00+00:00,85.0,80.0,5.54,6.74,,47.59359,-54.27349
2018-05-22 15:40:00+00:00,83.0,81.0,4.52,5.62,,47.59359,-54.27349
2018-05-22 15:50:00+00:00,86.0,82.0,3.48,5.02,,47.59359,-54.27349
2018-05-22 16:00:00+00:00,84.0,89.0,3.43,4.73,,47.59359,-54.27349
2018-05-22 16:10:00+00:00,97.0,86.0,2.88,3.68,,47.59359,-54.27349
2018-05-22 16:20:00+00:00,101.0,84.0,1.97,2.99,,47.59359,-54.27349
2018-05-22 16:30:00+00:00,142.0,148.0,1.08,1.68,,47.59359,-54.27349
2018-05-22 16:40:00+00:00,141.0,140.0,1.89,2.15,,47.59359,-54.27349
2018-05-22 16:50:00+00:00,190.0,183.0,2.17,2.54,,47.59359,-54.27349
2018-05-22 17:00:00+00:00,179.0,178.0,3.23,3.38,,47.59359,-54.27349
2018-05-22 17:10:00+00:00,190.0,190.0,3.33,3.59,,47.59359,-54.27349
2018-05-22 17:20:00+00:00,221.0,218.0,4.31,4.5,,47.59359,-54.27349
2018-05-22 17:30:00+00:00,212.0,214.0,3.66,4.14,,47.59359,-54.27349
2018-05-22 17:40:00+00:00,207.0,207.0,4.14,5.01,,47.59359,-54.27349
2018-05-22 17:50:00+00:00,203.0,207.0,4.23,4.6,,47.59359,-54.27349
2018-05-22 18:00:00+00:00,207.0,210.0,4.51,4.67,,47.59359,-54.27349
2018-05-22 18:10:00+00:00,215.0,216.0,4.72,4.95,,47.59359,-54.27349
2018-05-22 18:20:00+00:00,228.0,227.0,7.12,7.52,,47.59359,-54.27349
2018-05-22 18:30:00+00:00,230.0,233.0,7.43,8.61,,47.59359,-54.27349
2018-05-22 18:40:00+00:00,233.0,238.0,7.26,8.39,,47.59359,-54.27349
2018-05-22 18:50:00+00:00,240.0,245.0,8.47,9.77,,47.59359,-54.27349
2018-05-22 19:00:00+00:00,242.0,247.0,8.72,10.2,,47.59359,-54.27349
2018-05-22 19:10:00+00:00,230.0,228.0,8.44,9.38,,47.59359,-54.27349
2018-05-22 19:20:00+00:00,224.0,222.0,7.84,8.47,,47.59359,-54.27349
2018-05-22 19:30:00+00:00,225.0,225.0,7.74,8.54,,47.59359,-54.27349
2018-05-22 19:40:00+00:00,228.0,231.0,9.49,10.5,,47.59359,-54.27349
2018-05-22 19:50:00+00:00,225.0,222.0,8.64,10.22,,47.59359,-54.27349
2018-05-22 20:00:00+00:00,229.0,231.0,9.21,11.04,,47.59359,-54.27349
2018-05-22 20:10:00+00:00,232.0,230.0,8.27,9.18,,47.59359,-54.27349
2018-05-22 20:20:00+00:00,232.0,236.0,8.34,9.68,,47.59359,-54.27349
2018-05-22 20:30:00+00:00,238.0,240.0,9.23,10.96,,47.59359,-54.27349
2018-05-22 20:40:00+00:00,235.0,234.0,8.54,9.88,,47.59359,-54.27349
2018-05-22 20:50:00+00:00,229.0,230.0,7.94,9.12,,47.59359,-54.27349
2018-05-22 21:00:00+00:00,227.0,227.0,8.08,9.13,,47.59359,-54.27349
2018-05-22 21:10:00+00:00,221.0,218.0,8.64,9.61,,47.59359,-54.27349
2018-05-22 21:20:00+00:00,228.0,229.0,7.3,8.11,,47.59359,-54.27349
2018-05-22 21:30:00+00:00,224.0,223.0,7.24,8.0,,47.59359,-54.27349
2018-05-22 21:40:00+00:00,231.0,235.0,8.05,8.98,,47.59359,-54.27349
2018-05-22 21:50:00+00:00,221.0,224.0,8.3,9.42,,47.59359,-54.27349
2018-05-22 22:00:00+00:00,230.0,231.0,6.94,7.58,,47.59359,-54.27349
2018-05-22 22:10:00+00:00,234.0,239.0,7.21,8.6,,47.59359,-54.27349
2018-05-22 22:20:00+00:00,239.0,252.0,6.89,8.16,,47.59359,-54.27349
2018-05-22 22:30:00+00:00,231.0,229.0,7.72,8.87,,47.59359,-54.27349
2018-05-22 22:40:00+00:00,236.0,232.0,7.96,9.01,,47.59359,-54.27349
2018-05-22 22:50:00+00:00,245.0,251.0,7.35,8.01,,47.59359,-54.27349
2018-05-22 23:00:00+00:00,246.0,247.0,7.58,8.51,,47.59359,-54.27349
2018-05-22 23:10:00+00:00,245.0,243.0,7.39,8.83,,47.59359,-54.27349
2018-05-22 23:20:00+00:00,224.0,220.0,6.6,8.58,,47.59359,-54.27349
2018-05-22 23:30:00+00:00,238.0,240.0,6.26,7.45,,47.59359,-54.27349
2018-05-22 23:40:00+00:00,241.0,239.0,6.37,7.67,,47.59359,-54.27349
2018-05-22 23:50:00+00:00,239.0,239.0,7.16,8.49,,47.59359,-54.27349
